Regional Weather Roundup
Issued by NWS

Home | Current Version | Previous Version | Text Only | Print | Product List | Glossary Off
Versions: 1 2 3 4 5 6 7 8 9 10 11 12 13 14 15 16 17 18 19 20 21 22 23 24 25 26 27 28 29 30 31 32 33 34 35 36 37 38 39 40 41 42 43 44 45 46 47 48 49 50

000
ASUS43 KOAX 280002
RWRNE

WEATHER ROUNDUP FOR NEBRASKA
NATIONAL WEATHER SERVICE OMAHA NE
700 PM CDT THU AUG 27 2015

NOTES: SATELLITE DATA IS BEING USED TO AUGMENT CLOUD COVER ABOVE
       12000 FEET.
       "FAIR" INDICATES FEW OR NO CLOUDS BELOW 12,000 FEET WITH NO
       SIGNIFICANT WEATHER AND/OR OBSTRUCTIONS TO VISIBILITY.

  * THESE STATIONS DO NOT REPORT WEATHER SUCH AS RAIN...SNOW OR FOG.

NEZ001>004-019>022-054>056-280100-
NEBRASKA PANHANDLE

CITY           SKY/WX    TMP DP  RH WIND       PRES   REMARKS
SCOTTSBLUFF    MOSUNNY   82  54  37 N10       30.04R
6HR MIN TEMP:  81; 6HR MAX TEMP:  87;

ALLIANCE       PTSUNNY   74  56  53 NE9       30.03F
6HR MIN TEMP:  74; 6HR MAX TEMP:  85;

CHADRON        MOSUNNY   78  55  44 NE7       30.00F
6HR MIN TEMP:  76; 6HR MAX TEMP:  83;

KIMBALL        PTSUNNY   76  52  43 N10       30.08S
SIDNEY         MOSUNNY   80  56  43 N23G30    30.05R
6HR MIN TEMP:  80; 6HR MAX TEMP:  89;

$$

NEZ057>060-069>072-079>082-280100-
SOUTHWEST NEBRASKA

CITY           SKY/WX    TMP DP  RH WIND       PRES   REMARKS
NORTH PLATTE   SUNNY     84  64  50 N10       29.84S
6HR MIN TEMP:  78; 6HR MAX TEMP:  89;

IMPERIAL       MOSUNNY   82  60  47 N7        29.89R
6HR MIN TEMP:  82; 6HR MAX TEMP:  92;

LEXINGTON      MOSUNNY   90  71  52 W5        29.78S HX  96
MCCOOK         MOSUNNY   92  57  30 W10       29.81S HX  90
6HR MIN TEMP:  90; 6HR MAX TEMP:  95;

OGALLALA       PTSUNNY   84  63  48 N16G23    29.93R
$$

NEZ005>010-023>029-035>040-094-280100-
NORTH CENTRAL NEBRASKA

CITY           SKY/WX    TMP DP  RH WIND       PRES   REMARKS
AINSWORTH      CLOUDY    77  68  74 N6        29.90F
BROKEN BOW     TSTM      79  71  76 NE6       29.82F
6HR MIN TEMP:  78; 6HR MAX TEMP:  85; 6HR PCP: TRACE;

O`NEILL        CLOUDY    78  70  75 E9        29.88S
ORD            PTSUNNY   80  70  71 E8        29.82F
6HR MIN TEMP:  79; 6HR MAX TEMP:  83; 6HR PCP: TRACE;

$$

NEZ041-046>049-061>064-073>077-083>087-280100-
SOUTH CENTRAL NEBRASKA

CITY           SKY/WX    TMP DP  RH WIND       PRES   REMARKS
GRAND ISLAND   PTSUNNY   81  67  62 S21G30    29.83F
6HR MIN TEMP:  78; 6HR MAX TEMP:  84; 6HR PCP: TRACE;

AURORA         CLOUDY    82  67  61 S16G25    29.85S
HASTINGS       MOSUNNY   80  67  64 SE22G35   29.83S
6HR MIN TEMP:  78; 6HR MAX TEMP:  87;

HEBRON         LGT RAIN  76  66  72 SE8       29.85F
HOLDREGE       SUNNY     82  66  58 SE16G24   29.80R
KEARNEY *      MOSUNNY   81  64  57 SE24G30   29.81R
YORK           CLOUDY    81  68  65 S16G23    29.85F
$$

NEZ011>018-030>034-042>045-280100-
NORTHEAST NEBRASKA

CITY           SKY/WX    TMP DP  RH WIND       PRES   REMARKS
NORFOLK        PTSUNNY   81  67  62 SE12      29.86F
6HR MIN TEMP:  76; 6HR MAX TEMP:  82;

ALBION         CLOUDY    77  69  77 SE8       29.85S
BLAIR          CLOUDY    78  64  62 S16G22    29.91R
COLUMBUS *     CLOUDY   N/A N/A N/A SE10      29.85S
FREMONT        CLOUDY    78  66  66 SE9       29.89F
TEKAMAH        CLOUDY    79  68  69 S9        29.90R
6HR MIN TEMP:  75; 6HR MAX TEMP:  80;

WAYNE          CLOUDY    78  70  77 E6        29.92R
$$

NEZ050>053-065>068-078-088>093-280100-
SOUTHEAST NEBRASKA

CITY           SKY/WX    TMP DP  RH WIND       PRES   REMARKS
LINCOLN        CLOUDY    79  67  66 SE13      29.89F
6HR MIN TEMP:  78; 6HR MAX TEMP:  87;

OMAHA EPPLEY   CLOUDY    80  68  66 S14       29.90F
6HR MIN TEMP:  77; 6HR MAX TEMP:  84;

BEATRICE       CLOUDY    78  66  67 SE6       29.90S
FALLS CITY     PTSUNNY   77  67  71 SE10      29.91F
6HR MIN TEMP:  74; 6HR MAX TEMP:  82;

NEBRASKA CITY  CLOUDY    77  64  63 S9        29.92F
PLATTSMOUTH    CLOUDY    76  64  67 SE10G17   29.91F
$$

NEZ044-045-051>053-067-280100-
OMAHA AREA

CITY           SKY/WX    TMP DP  RH WIND       PRES   REMARKS
OMAHA EPPLEY   CLOUDY    80  68  66 S14       29.90F
6HR MIN TEMP:  77; 6HR MAX TEMP:  84;

BLAIR          CLOUDY    78  64  62 S16G22    29.91R
FREMONT        CLOUDY    78  66  66 SE9       29.89F
MILLARD        CLOUDY    78  67  69 SE12      29.90R
OFFUTT AFB     CLOUDY    78  67  70 SE13      29.90F
PLATTSMOUTH    CLOUDY    76  64  67 SE10G17   29.91F
WAHOO          FAIR      76  68  75 SE10      29.89F
$$



USA.gov is the U.S. government's official web portal to all federal, state and local government web resources and services.